Kezdőlap
METAR-TAF:

METAR-TAF

Repülőterek :

Chariton Municipal Airport

Chariton, Iowa, Amerikai Egyesült Államok

földrajzi szélesség: 41-02N, földrajzi hosszúság: 093-22W, magasság: 320 m

Jelenlegi meteorológiai megfigyelések

A jelentés 1 órával és 43 perccel ezelõtt készült, 03:35 UTC
Északkeleti szél 8 kt
Hőmérséklet 5°C
Páratartalom 75%
Légköri nyomás 1011 hPa
Látótávolság: 16.1 km
Szakadozott felhőzet 4300 lábon

METAR: KCNC 260335Z AUTO 04008KT 10SM BKN043 05/01 A2986 RMK AO2

Idő: 00:18 (05:18 UTC)


TAF: hiányzik

Meteorológiai megfigyelések és előrejelzések több, mint 4000 repülőtéren (METAR és TAF jelentéseket).

A térképen piros és sárga pontok jelzik az elérhető meteorológiai állomásokat.

Mozgassa az egeret a pont fölött, hogy megjelenjen az állomás neve.

Azután kattintson az időjárási megfigyelések és előrejelzések megtekintéséhez.

A térkép megváltoztatása: kattintson a fekete keresztel jelölt zöld gombra ráközelítéshez, a vonallal jelölt zöld gombra távolításhoz, vagy a zöld nyilakra a szomszédos térképek eléréséhez.


METAR-TAF: